Zurück zum Katalog

STARLINK-31342

AktivKommunikationVLEO
NORAD 59166·PAYLOAD·🇺🇸 United States

Gestartet Mar 4, 2024 von Cape Canaveral Space Force Station

Loading…

Nächste Überflüge (nächste 24 Stunden)

TLE

AktuellSource: CelesTrak SupGP

Epoche: Sep 15, 2026, 03:10 UTC

1 59166C 24044Q   26258.13243056  .00047352  00000+0  17151-2 0  2583
2 59166  43.0000 117.0868 0001493 269.0578 289.4699 15.27554947    18

Verfolge STARLINK-31342 in Echtzeit mit AllMySat

Download on the App Store